WD9EKA Weather Reports


Display with metric or nautical units.
time (UTC)temp
F
wind
direction
speed
MPH
gust
MPH
rain 1hr
in
rain 24hr
in
rain mn
in
humidity
%
barometer
mb
20260904201123 97 266 3.0 5.0 0.00 0.00 0.00 53 1008.7
20260904200602 99 251 3.0 4.0 0.00 0.00 0.00 50 1008.9
20260904200042 98 181 1.0 2.0 0.00 0.00 0.00 49 1008.9
20260904195522 97 260 0.0 1.0 0.00 0.00 0.00 52 1009.0
20260904195003 98 197 1.0 2.0 0.00 0.00 0.00 52 1009.2
20260904194442 99 177 0.0 2.0 0.00 0.00 0.00 51 1009.1
20260904193922 98 194 0.0 0.0 0.00 0.00 0.00 50 1009.7
20260904193402 98 256 0.0 1.0 0.00 0.00 0.00 51 1009.4
20260904192842 97 309 2.0 2.0 0.00 0.00 0.00 52 1009.5
20260904192322 98 199 0.0 1.0 0.00 0.00 0.00 57 1009.8
20260904191802 98 282 0.0 0.0 0.00 0.00 0.00 51 1009.7
20260904191242 97 250 0.0 1.0 0.00 0.00 0.00 52 1009.8
20260904190202 97 264 3.0 4.0 0.00 0.00 0.00 52 1009.8
20260904185642 98 243 2.0 2.0 0.00 0.00 0.00 54 1010.0
20260904185122 97 242 0.0 1.0 0.00 0.00 0.00 55 1010.0
20260904184602 96 327 2.0 2.0 0.00 0.00 0.00 57 1010.2
20260904184042 97 328 2.0 3.0 0.00 0.00 0.00 54 1010.2
20260904183522 96 311 1.0 2.0 0.00 0.00 0.00 54 1010.3
20260904183003 95 250 1.0 2.0 0.00 0.00 0.00 58 1010.4
20260904182442 95 272 3.0 4.0 0.00 0.00 0.00 58 1010.2
20260904181922 96 297 4.0 5.0 0.00 0.00 0.00 54 1010.7
20260904181402 95 250 1.0 2.0 0.00 0.00 0.00 57 1010.5
20260904180842 95 210 1.0 2.0 0.00 0.00 0.00 57 1010.4
20260904180233 96 264 2.0 4.0 0.00 0.00 0.00 59 1010.7
20260904175730 96 315 2.0 4.0 0.00 0.00 0.00 58 1010.8
20260904175210 95 267 2.0 3.0 0.00 0.00 0.00 57 1010.6
20260904174651 95 287 3.0 4.0 0.00 0.00 0.00 58 1010.8
20260904174133 95 227 4.0 5.0 0.00 0.00 0.00 59 1010.6
20260904173533 94 257 1.0 2.0 0.00 0.00 0.00 61 1010.8
20260904172933 94 285 4.0 5.0 0.00 0.00 0.00 57 1010.8
20260904172333 95 245 2.0 3.0 0.00 0.00 0.00 60 1010.8
20260904171733 94 221 1.0 2.0 0.00 0.00 0.00 58 1011.0
20260904171133 94 290 4.0 4.0 0.00 0.00 0.00 59 1011.0
20260904170533 94 257 4.0 5.0 0.00 0.00 0.00 60 1011.0
20260904165933 94 272 2.0 3.0 0.00 0.00 0.00 61 1011.0
20260904165333 93 239 2.0 3.0 0.00 0.00 0.00 62 1011.2
20260904164734 93 260 2.0 4.0 0.00 0.00 0.00 62 1011.3
20260904164133 93 225 2.0 2.0 0.00 0.00 0.00 63 1011.2
20260904163533 93 262 3.0 4.0 0.00 0.00 0.00 63 1011.2
20260904162933 93 265 3.0 4.0 0.00 0.00 0.00 64 1011.0
20260904162333 93 243 3.0 3.0 0.00 0.00 0.00 64 1011.1
20260904161733 92 271 2.0 2.0 0.00 0.00 0.00 64 1011.0
20260904161226 92 220 2.0 4.0 0.00 0.00 0.00 62 1011.0
20260904160707 92 271 2.0 3.0 0.00 0.00 0.00 64 1011.0
20260904160146 92 260 3.0 4.0 0.00 0.00 0.00 64 1010.9
20260904155633 91 258 1.0 1.0 0.00 0.00 0.00 67 1010.9
20260904154433 91 282 4.0 5.0 0.00 0.00 0.00 64 1010.9
20260904153834 91 240 2.0 3.0 0.00 0.00 0.00 68 1010.9
20260904153233 91 258 3.0 5.0 0.00 0.00 0.00 65 1010.9
20260904152633 90 251 4.0 4.0 0.00 0.00 0.00 68 1010.7
20260904152033 89 260 2.0 3.0 0.00 0.00 0.00 69 1010.9
20260904151433 89 280 3.0 3.0 0.00 0.00 0.00 70 1010.9
20260904150833 89 267 2.0 3.0 0.00 0.00 0.00 68 1010.9
20260904150233 88 268 2.0 2.0 0.00 0.00 0.00 72 1010.9
20260904145633 88 277 4.0 5.0 0.00 0.00 0.00 72 1010.9
20260904145033 88 228 4.0 5.0 0.00 0.00 0.00 71 1010.8
20260904144433 88 227 1.0 2.0 0.00 0.00 0.00 73 1010.8
20260904143833 87 232 3.0 4.0 0.00 0.00 0.00 73 1010.8
20260904143233 86 262 2.0 3.0 0.00 0.00 0.00 74 1010.9
20260904142633 86 268 3.0 4.0 0.00 0.00 0.00 74 1010.9
20260904142033 87 209 3.0 5.0 0.00 0.00 0.00 74 1010.7
20260904141433 86 243 2.0 3.0 0.00 0.00 0.00 74 1010.9
20260904140833 86 229 2.0 3.0 0.00 0.00 0.00 74 1010.7
20260904140233 86 246 2.0 3.0 0.00 0.00 0.00 77 1010.9
20260904135730 85 269 1.0 2.0 0.00 0.00 0.00 77 1010.8
20260904135210 85 217 0.0 1.0 0.00 0.00 0.00 78 1010.8
20260904134650 85 251 0.0 1.0 0.00 0.00 0.00 78 1010.7
20260904134133 84 251 0.0 1.0 0.00 0.00 0.00 78 1010.7
20260904133533 84 251 0.0 0.0 0.00 0.00 0.00 82 1011.1
20260904132933 81 251 0.0 0.0 0.00 0.00 0.00 87 1010.9
20260904132333 79 251 0.0 1.0 0.00 0.00 0.00 93 1010.7
20260904131733 78 252 0.0 0.0 0.00 0.00 0.00 99 1011.0
20260904131133 77 252 0.0 0.0 0.00 0.00 0.00 99 1010.8
20260904130533 78 252 0.0 1.0 0.00 0.00 0.00 99 1010.6
20260904125933 77 252 0.0 0.0 0.00 0.00 0.00 99 1010.7
20260904125333 76 252 0.0 0.0 0.00 0.00 0.00 99 1010.4
20260904124734 76 252 0.0 0.0 0.00 0.00 0.00 99 1010.5
20260904124133 75 252 0.0 0.0 0.00 0.00 0.00 99 1010.5
20260904122933 74 252 0.0 0.0 0.00 0.00 0.00 99 1010.1
20260904122426 73 252 0.0 0.0 0.00 0.00 0.00 99 1010.1
20260904121907 73 252 0.0 0.0 0.00 0.00 0.00 99 1010.2
20260904121333 72 252 0.0 0.0 0.00 0.00 0.00 99 1010.0
20260904120733 72 252 0.0 0.0 0.00 0.00 0.00 99 1010.0
20260904120133 72 252 0.0 0.0 0.00 0.00 0.00 99 1009.9
20260904115533 71 252 0.0 0.0 0.00 0.00 0.00 99 1010.0
20260904114933 71 252 0.0 0.0 0.00 0.00 0.00 99 1010.2
20260904114333 71 252 0.0 0.0 0.00 0.00 0.00 99 1010.1
20260904113733 71 252 0.0 0.0 0.00 0.00 0.00 99 1010.0
20260904113133 71 252 0.0 0.0 0.00 0.00 0.00 99 1009.8
20260904112533 71 252 0.0 0.0 0.00 0.00 0.00 99 1010.1
20260904111933 70 252 0.0 0.0 0.00 0.00 0.00 99 1010.1
20260904111333 70 252 0.0 0.0 0.00 0.00 0.00 99 1010.1
20260904110133 70 252 0.0 0.0 0.00 0.00 0.00 99 1010.0
20260904104933 70 252 0.0 0.0 0.00 0.00 0.00 99 1010.0
20260904103733 70 252 0.0 0.0 0.00 0.00 0.00 99 1009.8
20260904103133 71 252 0.0 0.0 0.00 0.00 0.00 99 1009.8
20260904102533 71 252 0.0 0.0 0.00 0.00 0.00 99 1009.6
20260904101933 71 252 0.0 0.0 0.00 0.00 0.00 99 1009.8
20260904101333 71 252 0.0 0.0 0.00 0.00 0.00 99 1009.9
20260904100733 71 252 0.0 0.0 0.00 0.00 0.00 99 1009.8
20260904100133 71 252 0.0 0.0 0.00 0.00 0.00 99 1009.8
20260904094933 71 252 0.0 0.0 0.00 0.00 0.00 99 1009.7
20260904094333 71 252 0.0 0.0 0.00 0.00 0.00 99 1009.8
20260904093733 71 252 0.0 0.0 0.00 0.00 0.00 99 1009.7
20260904093133 71 252 0.0 0.0 0.00 0.00 0.00 99 1009.7
20260904092533 71 252 0.0 0.0 0.00 0.00 0.00 99 1009.6
20260904092027 71 252 0.0 0.0 0.00 0.00 0.00 99 1009.6
20260904091507 71 252 0.0 0.0 0.00 0.00 0.00 99 1009.5
20260904090939 71 252 0.0 0.0 0.00 0.00 0.00 99 1009.7
20260904090433 72 252 0.0 0.0 0.00 0.00 0.00 99 1009.7
20260904084833 71 252 0.0 0.0 0.00 0.00 0.00 99 1009.4
20260904084323 71 252 0.0 0.0 0.00 0.00 0.00 99 1009.3
20260904082723 72 252 0.0 0.0 0.00 0.00 0.00 99 1009.1
20260904082203 72 252 0.0 0.0 0.00 0.00 0.00 99 1009.4
20260904081633 72 252 0.0 0.0 0.00 0.00 0.00 99 1009.3
20260904081123 72 252 0.0 0.0 0.00 0.00 0.00 99 1009.5
20260904080603 72 252 0.0 0.0 0.00 0.00 0.00 99 1009.5
20260904080033 72 252 0.0 0.0 0.00 0.00 0.00 99 1009.5
20260904075523 72 252 0.0 0.0 0.00 0.00 0.00 99 1009.3
20260904075003 72 252 0.0 0.0 0.00 0.00 0.00 99 1009.3
20260904073923 72 252 0.0 0.0 0.00 0.00 0.00 99 1009.4
20260904073403 72 252 0.0 0.0 0.00 0.00 0.00 99 1009.5
20260904072833 72 252 0.0 0.0 0.00 0.00 0.00 99 1009.5
20260904072323 72 252 0.0 0.0 0.00 0.00 0.00 99 1009.7
20260904071803 73 252 0.0 0.0 0.00 0.00 0.00 99 1009.5
20260904071233 73 252 0.0 0.0 0.00 0.00 0.00 99 1009.5
20260904070723 73 252 0.0 0.0 0.00 0.00 0.00 99 1009.7
20260904065633 73 252 0.0 0.0 0.00 0.00 0.00 99 1009.7
20260904064603 73 252 0.0 0.0 0.00 0.00 0.00 99 1009.8
20260904064033 73 252 0.0 0.0 0.00 0.00 0.00 99 1009.6
20260904063523 73 252 0.0 0.0 0.00 0.00 0.00 99 1009.6
20260904063004 73 252 0.0 0.0 0.00 0.00 0.00 99 1009.7
20260904062433 73 252 0.0 0.0 0.00 0.00 0.00 99 1009.8
20260904061923 74 252 0.0 0.0 0.00 0.00 0.00 99 1009.7
20260904061403 74 252 0.0 0.0 0.00 0.00 0.00 99 1009.6
20260904060843 74 252 0.0 0.0 0.00 0.00 0.00 99 1009.8
20260904060323 73 252 0.0 0.0 0.00 0.00 0.00 99 1009.8
20260904055804 73 252 0.0 0.0 0.00 0.00 0.00 99 1009.7
20260904055243 73 252 0.0 0.0 0.00 0.00 0.00 99 1009.8
20260904054723 74 252 0.0 0.0 0.00 0.00 0.00 99 1009.8
20260904053633 74 252 0.0 0.0 0.00 0.00 0.00 99 1009.9
20260904053033 73 252 0.0 0.0 0.00 0.00 0.00 99 1009.5
20260904052433 74 252 0.0 0.0 0.00 0.00 0.00 99 1009.7
20260904051833 74 252 0.0 0.0 0.00 0.00 0.00 99 1009.7
20260904051233 74 252 0.0 0.0 0.00 0.00 0.00 99 1009.7
20260904050033 75 252 0.0 0.0 0.00 0.00 0.00 99 1009.7
20260904045433 75 252 0.0 0.0 0.00 0.00 0.00 99 1009.6
20260904044833 75 252 0.0 0.0 0.00 0.00 0.00 99 1009.6
20260904044233 75 252 0.0 0.0 0.00 0.00 0.00 99 1009.6
20260904043633 75 252 0.0 0.0 0.00 0.00 0.00 99 1009.6
20260904042433 75 252 0.0 0.0 0.00 0.00 0.00 99 1009.6
20260904041833 75 252 0.0 0.0 0.00 0.00 0.00 99 1009.4
20260904041233 75 252 0.0 0.0 0.00 0.00 0.00 99 1009.4
20260904040633 75 252 0.0 0.0 0.00 0.00 0.00 99 1009.6
20260904040033 75 252 0.0 0.0 0.00 0.00 0.00 99 1009.5
20260904035433 75 252 0.0 0.0 0.00 0.00 0.00 99 1009.5
20260904034833 75 252 0.0 0.0 0.00 0.00 0.00 99 1009.4
20260904034233 76 252 0.0 0.0 0.00 0.00 0.00 99 1009.4
20260904033633 76 252 0.0 0.0 0.00 0.00 0.00 99 1009.6
20260904033033 76 252 0.0 0.0 0.00 0.00 0.00 99 1009.4
20260904032433 76 252 0.0 0.0 0.00 0.00 0.00 99 1009.7
20260904031833 76 252 0.0 0.0 0.00 0.00 0.00 99 1009.4
20260904031233 76 252 0.0 0.0 0.00 0.00 0.00 99 1009.4
20260904030633 76 252 0.0 0.0 0.00 0.00 0.00 99 1009.4
20260904030034 77 252 0.0 0.0 0.00 0.00 0.00 99 1009.2
20260904025433 76 252 0.0 0.0 0.00 0.00 0.00 99 1009.5
20260904024833 77 252 0.0 0.0 0.00 0.00 0.00 99 1009.4
20260904024233 77 252 0.0 0.0 0.00 0.00 0.00 99 1009.3
20260904023633 77 252 0.0 0.0 0.00 0.00 0.00 99 1009.5
20260904023033 77 252 0.0 0.0 0.00 0.00 0.00 98 1009.2
20260904022433 77 252 0.0 0.0 0.00 0.00 0.00 98 1009.3
20260904021332 77 252 0.0 0.0 0.00 0.00 0.00 98 1009.3
20260904020252 77 252 0.0 0.0 0.00 0.00 0.00 97 1009.3
20260904015133 77 252 0.0 0.0 0.00 0.00 0.00 97 1009.2
20260904014533 77 252 0.0 0.0 0.00 0.00 0.00 97 1009.2
20260904013933 78 252 0.0 0.0 0.00 0.00 0.00 96 1009.4
20260904013333 78 252 0.0 0.0 0.00 0.00 0.00 96 1009.1
20260904012733 78 252 0.0 0.0 0.00 0.00 0.00 95 1009.2
20260904012133 78 252 0.0 0.0 0.00 0.00 0.00 95 1009.2
20260904011533 78 252 0.0 0.0 0.00 0.00 0.00 94 1009.1
20260904010933 78 252 0.0 0.0 0.00 0.00 0.00 93 1009.0
20260904010333 79 252 0.0 0.0 0.00 0.00 0.00 93 1008.9
20260904005733 79 252 0.0 0.0 0.00 0.00 0.00 92 1008.8
20260904005228 80 252 0.0 0.0 0.00 0.00 0.00 91 1008.9
20260904004708 80 252 0.0 0.0 0.00 0.00 0.00 91 1008.8
20260904004148 81 252 0.0 0.0 0.00 0.00 0.00 90 1008.6
20260904003633 81 252 0.0 0.0 0.00 0.00 0.00 89 1008.7
20260904002433 82 252 0.0 0.0 0.00 0.00 0.00 86 1008.6
20260904001924 83 252 0.0 0.0 0.00 0.00 0.00 84 1008.5
20260904001404 84 252 0.0 0.0 0.00 0.00 0.00 83 1008.5
20260904000844 85 252 0.0 0.0 0.00 0.00 0.00 81 1008.6
20260903235748 87 252 0.0 0.0 0.00 0.00 0.00 77 1008.6
20260903235228 88 252 0.0 0.0 0.00 0.00 0.00 74 1008.5
20260903233627 90 252 0.0 0.0 0.00 0.00 0.00 70 1008.5
20260903232548 92 252 0.0 0.0 0.00 0.00 0.00 67 1008.4
20260903232028 92 252 0.0 0.0 0.00 0.00 0.00 68 1008.4
20260903231508 93 252 0.0 0.0 0.00 0.00 0.00 67 1008.3
20260903230948 92 252 0.0 0.0 0.00 0.00 0.00 67 1008.2
20260903230428 92 252 0.0 0.0 0.00 0.00 0.00 68 1008.3
20260903225908 92 252 0.0 0.0 0.00 0.00 0.00 67 1008.4
20260903225348 93 252 0.0 0.0 0.00 0.00 0.00 66 1008.2
20260903224828 93 252 0.0 0.0 0.00 0.00 0.00 66 1008.3
20260903224308 93 252 0.0 1.0 0.00 0.00 0.00 66 1008.5
20260903223748 94 252 0.0 1.0 0.00 0.00 0.00 64 1008.2
20260903223233 95 251 0.0 1.0 0.00 0.00 0.00 62 1008.4
20260903222135 97 252 0.0 1.0 0.00 0.00 0.00 60 1008.5
20260903221600 98 226 0.0 1.0 0.00 0.00 0.00 51 1008.4
20260903221033 98 213 0.0 0.0 0.00 0.00 0.00 56 1008.4
20260903220516 97 212 0.0 1.0 0.00 0.00 0.00 54 1008.2
20260903215956 97 262 0.0 0.0 0.00 0.00 0.00 58 1008.3
20260903215433 98 262 0.0 0.0 0.00 0.00 0.00 54 1008.3
20260903214916 97 262 0.0 0.0 0.00 0.00 0.00 55 1008.3
20260903214356 97 260 1.0 2.0 0.00 0.00 0.00 51 1008.5
20260903213832 97 213 3.0 4.0 0.00 0.00 0.00 51 1008.3
20260903213316 96 200 2.0 3.0 0.00 0.00 0.00 51 1008.3
20260903212756 97 220 2.0 2.0 0.00 0.00 0.00 52 1008.2
20260903212233 98 262 3.0 4.0 0.00 0.00 0.00 52 1008.6
20260903211716 97 238 2.0 2.0 0.00 0.00 0.00 54 1008.6
20260903211156 96 294 2.0 3.0 0.00 0.00 0.00 52 1008.7
20260903210633 97 252 1.0 2.0 0.00 0.00 0.00 55 1008.4
20260903210116 97 189 2.0 3.0 0.00 0.00 0.00 53 1008.5
20260903205556 97 258 3.0 3.0 0.00 0.00 0.00 52 1008.6
20260903205033 96 275 3.0 4.0 0.00 0.00 0.00 52 1008.6
20260903204516 97 279 4.0 4.0 0.00 0.00 0.00 54 1009.0
20260903203956 96 213 2.0 2.0 0.00 0.00 0.00 53 1008.9
20260903203433 97 264 1.0 2.0 0.00 0.00 0.00 54 1008.9
20260903202833 96 281 3.0 3.0 0.00 0.00 0.00 56 1008.8
20260903202233 97 273 3.0 4.0 0.00 0.00 0.00 52 1009.0
20260903201716 97 176 0.0 0.0 0.00 0.00 0.00 54 1008.9